Time,TemperatureF,DewpointF,PressureIn,WindDirection,WindDirectionDegrees,WindSpeedMPH,WindSpeedGustMPH,Humidity,HourlyPrecipIn,Conditions,Clouds,dailyrainin,SoftwareType,DateUTC
2013-04-03 00:03:00,36.0,20.0,30.14,North,349,0.0,-999.0,51,-99.99,,,-99.99,,2013-04-03 04:03:00,
2013-04-03 00:13:00,36.0,20.0,30.14,North,349,0.0,-999.0,51,-99.99,,,-99.99,,2013-04-03 04:13:00,
2013-04-03 00:23:00,36.0,20.0,30.14,North,349,0.0,-999.0,51,-99.99,,,-99.99,,2013-04-03 04:23:00,
2013-04-03 00:33:00,35.0,20.0,30.14,North,349,0.0,-999.0,55,-99.99,,,-99.99,,2013-04-03 04:33:00,
2013-04-03 00:43:00,35.0,20.0,30.14,North,349,0.0,-999.0,55,-99.99,,,-99.99,,2013-04-03 04:43:00,
2013-04-03 00:53:00,34.0,22.0,30.14,North,349,0.0,-999.0,61,-99.99,,,-99.99,,2013-04-03 04:53:00,
2013-04-03 01:02:00,33.0,20.0,30.14,North,349,0.0,-999.0,58,-99.99,,,-99.99,,2013-04-03 05:02:00,
2013-04-03 01:12:00,33.0,20.0,30.14,North,349,0.0,-999.0,58,-99.99,,,-99.99,,2013-04-03 05:12:00,
2013-04-03 01:22:00,33.0,20.0,30.15,North,349,0.0,-999.0,58,-99.99,,,-99.99,,2013-04-03 05:22:00,
2013-04-03 01:32:00,33.0,21.0,30.16,North,349,0.0,-999.0,61,-99.99,,,-99.99,,2013-04-03 05:32:00,
2013-04-03 01:42:00,33.0,21.0,30.16,North,349,0.0,-999.0,61,-99.99,,,-99.99,,2013-04-03 05:42:00,
2013-04-03 01:53:00,32.0,21.0,30.16,North,349,0.0,-999.0,63,-99.99,,,-99.99,,2013-04-03 05:53:00,
2013-04-03 02:02:00,32.0,20.0,30.16,North,349,0.0,-999.0,62,-99.99,,,-99.99,,2013-04-03 06:02:00,
2013-04-03 02:12:00,32.0,20.0,30.16,North,349,0.0,-999.0,62,-99.99,,,-99.99,,2013-04-03 06:12:00,
2013-04-03 02:22:00,31.0,20.0,30.16,North,349,0.0,-999.0,64,-99.99,,,-99.99,,2013-04-03 06:22:00,
2013-04-03 02:32:00,31.0,21.0,30.16,North,349,0.0,-999.0,66,-99.99,,,-99.99,,2013-04-03 06:32:00,
2013-04-03 02:42:00,31.0,21.0,30.16,North,349,0.0,-999.0,66,-99.99,,,-99.99,,2013-04-03 06:42:00,
2013-04-03 02:52:00,30.0,20.0,30.16,North,349,0.0,-999.0,67,-99.99,,,-99.99,,2013-04-03 06:52:00,
2013-04-03 03:02:00,30.0,20.0,30.16,North,349,0.0,-999.0,67,-99.99,,,-99.99,,2013-04-03 07:02:00,
2013-04-03 03:12:00,30.0,20.0,30.16,North,349,0.0,-999.0,67,-99.99,,,-99.99,,2013-04-03 07:12:00,
2013-04-03 03:23:00,30.0,21.0,30.16,North,349,0.0,-999.0,69,-99.99,,,-99.99,,2013-04-03 07:23:00,
2013-04-03 03:33:00,29.0,20.0,30.16,North,349,0.0,-999.0,69,-99.99,,,-99.99,,2013-04-03 07:33:00,
2013-04-03 03:43:00,29.0,20.0,30.16,North,349,0.0,-999.0,69,-99.99,,,-99.99,,2013-04-03 07:43:00,
2013-04-03 03:53:00,28.0,20.0,30.16,North,349,0.0,-999.0,71,-99.99,,,-99.99,,2013-04-03 07:53:00,
2013-04-03 04:03:00,28.0,20.0,30.16,North,349,0.0,-999.0,73,-99.99,,,-99.99,,2013-04-03 08:03:00,
2013-04-03 04:12:00,28.0,20.0,30.16,North,349,0.0,-999.0,73,-99.99,,,-99.99,,2013-04-03 08:12:00,
2013-04-03 04:22:00,28.0,21.0,30.16,North,349,0.0,-999.0,74,-99.99,,,-99.99,,2013-04-03 08:22:00,
2013-04-03 04:32:00,28.0,21.0,30.17,North,349,0.0,-999.0,76,-99.99,,,-99.99,,2013-04-03 08:32:00,
2013-04-03 04:42:00,28.0,21.0,30.17,North,349,0.0,-999.0,76,-99.99,,,-99.99,,2013-04-03 08:42:00,
2013-04-03 04:52:00,27.0,20.0,30.17,North,349,0.0,-999.0,75,-99.99,,,-99.99,,2013-04-03 08:52:00,
2013-04-03 05:02:00,27.0,20.0,30.17,North,349,0.0,-999.0,74,-99.99,,,-99.99,,2013-04-03 09:02:00,
2013-04-03 05:12:00,27.0,20.0,30.17,North,349,0.0,-999.0,74,-99.99,,,-99.99,,2013-04-03 09:12:00,
2013-04-03 05:22:00,27.0,20.0,30.18,North,349,0.0,-999.0,74,-99.99,,,-99.99,,2013-04-03 09:22:00,
2013-04-03 05:33:00,27.0,20.0,30.18,North,349,0.0,-999.0,75,-99.99,,,-99.99,,2013-04-03 09:33:00,
2013-04-03 05:43:00,27.0,20.0,30.18,North,349,0.0,-999.0,75,-99.99,,,-99.99,,2013-04-03 09:43:00,
2013-04-03 05:53:00,26.0,19.0,30.18,North,349,0.0,-999.0,76,-99.99,,,-99.99,,2013-04-03 09:53:00,
2013-04-03 06:03:00,26.0,20.0,30.18,North,349,0.0,-999.0,77,-99.99,,,-99.99,,2013-04-03 10:03:00,
2013-04-03 06:12:00,26.0,20.0,30.18,North,349,0.0,-999.0,77,-99.99,,,-99.99,,2013-04-03 10:12:00,
2013-04-03 06:22:00,26.0,20.0,30.19,North,349,0.0,-999.0,77,-99.99,,,-99.99,,2013-04-03 10:22:00,
2013-04-03 06:33:00,26.0,19.0,30.19,North,349,0.0,-999.0,76,-99.99,,,-99.99,,2013-04-03 10:33:00,
2013-04-03 06:43:00,26.0,19.0,30.19,North,349,0.0,-999.0,76,-99.99,,,-99.99,,2013-04-03 10:43:00,
2013-04-03 06:53:00,26.0,19.0,30.19,North,349,0.0,-999.0,76,-99.99,,,-99.99,,2013-04-03 10:53:00,
2013-04-03 07:02:00,26.0,20.0,30.20,North,349,0.0,-999.0,77,-99.99,,,-99.99,,2013-04-03 11:02:00,
2013-04-03 07:12:00,26.0,20.0,30.20,North,349,0.0,-999.0,77,-99.99,,,-99.99,,2013-04-03 11:12:00,
2013-04-03 07:23:00,26.0,20.0,30.20,North,349,0.0,-999.0,78,-99.99,,,-99.99,,2013-04-03 11:23:00,
2013-04-03 07:32:00,26.0,20.0,30.22,North,349,0.0,-999.0,79,-99.99,,,-99.99,,2013-04-03 11:32:00,
2013-04-03 07:42:00,26.0,20.0,30.22,North,349,0.0,-999.0,79,-99.99,,,-99.99,,2013-04-03 11:42:00,
2013-04-03 07:53:00,26.0,20.0,30.22,North,349,0.0,-999.0,78,-99.99,,,-99.99,,2013-04-03 11:53:00,
2013-04-03 08:02:00,27.0,20.0,30.22,North,349,0.0,-999.0,76,-99.99,,,-99.99,,2013-04-03 12:02:00,
2013-04-03 08:13:00,27.0,20.0,30.22,North,349,0.0,-999.0,76,-99.99,,,-99.99,,2013-04-03 12:13:00,
2013-04-03 08:22:00,28.0,20.0,30.22,North,349,0.0,-999.0,73,-99.99,,,-99.99,,2013-04-03 12:22:00,
2013-04-03 08:33:00,30.0,21.0,30.22,WSW,237,0.0,-999.0,68,-99.99,,,-99.99,,2013-04-03 12:33:00,
2013-04-03 08:42:00,30.0,21.0,30.22,WSW,237,0.0,-999.0,68,-99.99,,,-99.99,,2013-04-03 12:42:00,
2013-04-03 08:52:00,33.0,22.0,30.22,WSW,247,1.0,-999.0,64,-99.99,,,-99.99,,2013-04-03 12:52:00,
2013-04-03 09:02:00,36.0,23.0,30.21,West,266,0.0,-999.0,60,-99.99,,,-99.99,,2013-04-03 13:02:00,
2013-04-03 09:12:00,36.0,23.0,30.21,West,266,0.0,-999.0,60,-99.99,,,-99.99,,2013-04-03 13:12:00,
2013-04-03 09:22:00,38.0,24.0,30.21,SW,236,1.0,-999.0,57,-99.99,,,-99.99,,2013-04-03 13:22:00,
2013-04-03 09:32:00,41.0,26.0,30.21,WNW,300,1.0,-999.0,54,-99.99,,,-99.99,,2013-04-03 13:32:00,
2013-04-03 09:42:00,41.0,26.0,30.21,WNW,300,1.0,-999.0,54,-99.99,,,-99.99,,2013-04-03 13:42:00,
2013-04-03 09:52:00,43.0,26.0,30.22,NW,305,1.0,-999.0,50,-99.99,,,-99.99,,2013-04-03 13:52:00,
2013-04-03 10:02:00,45.0,25.0,30.22,WNW,302,1.0,-999.0,46,-99.99,,,-99.99,,2013-04-03 14:02:00,
2013-04-03 10:13:00,45.0,25.0,30.22,WNW,302,1.0,-999.0,46,-99.99,,,-99.99,,2013-04-03 14:13:00,
2013-04-03 10:22:00,47.0,25.0,30.22,NW,313,3.0,-999.0,42,-99.99,,,-99.99,,2013-04-03 14:22:00,
2013-04-03 10:32:00,49.0,26.0,30.22,West,269,2.0,-999.0,40,-99.99,,,-99.99,,2013-04-03 14:32:00,
2013-04-03 10:43:00,49.0,26.0,30.22,West,269,2.0,-999.0,40,-99.99,,,-99.99,,2013-04-03 14:43:00,
2013-04-03 10:52:00,49.0,25.0,30.22,NNW,342,3.0,-999.0,38,-99.99,,,-99.99,,2013-04-03 14:52:00,
2013-04-03 11:02:00,50.0,25.0,30.23,WNW,286,3.0,-999.0,38,-99.99,,,-99.99,,2013-04-03 15:02:00,
2013-04-03 11:12:00,50.0,25.0,30.23,WNW,286,3.0,-999.0,38,-99.99,,,-99.99,,2013-04-03 15:12:00,
2013-04-03 11:23:00,50.0,24.0,30.23,NNW,330,4.0,-999.0,36,-99.99,,,-99.99,,2013-04-03 15:23:00,
2013-04-03 11:33:00,50.0,24.0,30.23,NNW,348,3.0,-999.0,36,-99.99,,,-99.99,,2013-04-03 15:33:00,
2013-04-03 11:43:00,50.0,24.0,30.23,NNW,348,3.0,-999.0,36,-99.99,,,-99.99,,2013-04-03 15:43:00,
2013-04-03 11:53:00,51.0,24.0,30.22,North,350,3.0,-999.0,35,-99.99,,,-99.99,,2013-04-03 15:53:00,
2013-04-03 12:03:00,52.0,26.0,30.22,WNW,299,3.0,-999.0,36,-99.99,,,-99.99,,2013-04-03 16:03:00,
2013-04-03 12:13:00,52.0,26.0,30.22,WNW,299,3.0,-999.0,36,-99.99,,,-99.99,,2013-04-03 16:13:00,
2013-04-03 12:24:00,52.0,25.0,30.21,North,355,3.0,-999.0,34,-99.99,,,-99.99,,2013-04-03 16:24:00,
2013-04-03 12:33:00,53.0,25.0,30.20,NW,323,2.0,-999.0,33,-99.99,,,-99.99,,2013-04-03 16:33:00,
2013-04-03 12:43:00,53.0,25.0,30.20,NW,323,2.0,-999.0,33,-99.99,,,-99.99,,2013-04-03 16:43:00,
2013-04-03 12:53:00,53.0,25.0,30.20,NW,322,3.0,-999.0,33,-99.99,,,-99.99,,2013-04-03 16:53:00,
2013-04-03 13:03:00,54.0,26.0,30.20,NNW,333,3.0,-999.0,33,-99.99,,,-99.99,,2013-04-03 17:03:00,
2013-04-03 13:14:00,54.0,26.0,30.20,NNW,333,3.0,-999.0,33,-99.99,,,-99.99,,2013-04-03 17:14:00,
2013-04-03 13:23:00,54.0,26.0,30.19,SW,236,3.0,-999.0,33,-99.99,,,-99.99,,2013-04-03 17:23:00,
2013-04-03 13:33:00,54.0,24.0,30.18,WNW,300,4.0,-999.0,31,-99.99,,,-99.99,,2013-04-03 17:33:00,
2013-04-03 13:46:00,54.0,24.0,30.18,WNW,300,4.0,-999.0,31,-99.99,,,-99.99,,2013-04-03 17:46:00,
2013-04-03 13:54:00,54.0,26.0,30.18,NW,314,4.0,-999.0,33,-99.99,,,-99.99,,2013-04-03 17:54:00,
2013-04-03 14:02:00,54.0,26.0,30.17,West,267,4.0,-999.0,33,-99.99,,,-99.99,,2013-04-03 18:02:00,
2013-04-03 14:13:00,54.0,26.0,30.17,West,267,4.0,-999.0,33,-99.99,,,-99.99,,2013-04-03 18:13:00,
2013-04-03 14:23:00,55.0,25.0,30.17,NNW,327,3.0,-999.0,31,-99.99,,,-99.99,,2013-04-03 18:23:00,
2013-04-03 14:33:00,55.0,25.0,30.16,WSW,254,4.0,-999.0,31,-99.99,,,-99.99,,2013-04-03 18:33:00,
2013-04-03 14:43:00,55.0,25.0,30.16,WSW,254,4.0,-999.0,31,-99.99,,,-99.99,,2013-04-03 18:43:00,
2013-04-03 14:52:00,55.0,26.0,30.16,NW,322,3.0,-999.0,32,-99.99,,,-99.99,,2013-04-03 18:52:00,
2013-04-03 15:03:00,55.0,25.0,30.16,WNW,299,3.0,-999.0,31,-99.99,,,-99.99,,2013-04-03 19:03:00,
2013-04-03 15:12:00,55.0,25.0,30.16,WNW,299,3.0,-999.0,31,-99.99,,,-99.99,,2013-04-03 19:12:00,
2013-04-03 15:22:00,51.0,21.0,30.16,NW,314,3.0,-999.0,31,-99.99,,,-99.99,,2013-04-03 19:22:00,
2013-04-03 15:32:00,53.0,24.0,30.16,WNW,286,2.0,-999.0,32,-99.99,,,-99.99,,2013-04-03 19:32:00,
2013-04-03 15:42:00,53.0,24.0,30.16,WNW,286,2.0,-999.0,32,-99.99,,,-99.99,,2013-04-03 19:42:00,
2013-04-03 15:52:00,53.0,22.0,30.16,WNW,288,4.0,-999.0,30,-99.99,,,-99.99,,2013-04-03 19:52:00,
2013-04-03 16:02:00,51.0,21.0,30.16,WNW,293,3.0,-999.0,31,-99.99,,,-99.99,,2013-04-03 20:02:00,
2013-04-03 16:12:00,51.0,21.0,30.16,WNW,293,3.0,-999.0,31,-99.99,,,-99.99,,2013-04-03 20:12:00,
2013-04-03 16:23:00,52.0,22.0,30.16,NW,322,3.0,-999.0,31,-99.99,,,-99.99,,2013-04-03 20:23:00,
2013-04-03 16:33:00,50.0,23.0,30.16,NW,310,3.0,-999.0,34,-99.99,,,-99.99,,2013-04-03 20:33:00,
2013-04-03 16:42:00,50.0,23.0,30.16,NW,310,3.0,-999.0,34,-99.99,,,-99.99,,2013-04-03 20:42:00,
2013-04-03 16:53:00,49.0,22.0,30.17,WNW,290,3.0,-999.0,34,-99.99,,,-99.99,,2013-04-03 20:53:00,
2013-04-03 17:12:00,49.0,21.0,30.18,WNW,296,3.0,-999.0,33,-99.99,,,-99.99,,2013-04-03 21:12:00,
2013-04-03 17:22:00,50.0,21.0,30.20,NNW,344,3.0,-999.0,32,-99.99,,,-99.99,,2013-04-03 21:22:00,
2013-04-03 17:33:00,50.0,21.0,30.20,NW,313,3.0,-999.0,31,-99.99,,,-99.99,,2013-04-03 21:33:00,
2013-04-03 17:42:00,50.0,21.0,30.20,NW,313,3.0,-999.0,31,-99.99,,,-99.99,,2013-04-03 21:42:00,
2013-04-03 17:52:00,50.0,20.0,30.21,NNE,28,4.0,-999.0,30,-99.99,,,-99.99,,2013-04-03 21:52:00,
2013-04-03 18:02:00,49.0,20.0,30.22,NNW,343,4.0,-999.0,31,-99.99,,,-99.99,,2013-04-03 22:02:00,
2013-04-03 18:13:00,49.0,20.0,30.22,NNW,343,4.0,-999.0,31,-99.99,,,-99.99,,2013-04-03 22:13:00,
2013-04-03 18:22:00,48.0,19.0,30.23,NW,323,4.0,-999.0,31,-99.99,,,-99.99,,2013-04-03 22:22:00,
2013-04-03 18:33:00,47.0,19.0,30.25,NNW,345,3.0,-999.0,32,-99.99,,,-99.99,,2013-04-03 22:33:00,
2013-04-03 18:42:00,47.0,19.0,30.25,NNW,345,3.0,-999.0,32,-99.99,,,-99.99,,2013-04-03 22:42:00,
2013-04-03 18:52:00,47.0,18.0,30.26,WNW,298,4.0,-999.0,31,-99.99,,,-99.99,,2013-04-03 22:52:00,
2013-04-03 19:02:00,47.0,18.0,30.26,WNW,298,4.0,-999.0,31,-99.99,,,-99.99,,2013-04-03 23:02:00,
2013-04-03 19:12:00,47.0,18.0,30.26,WNW,298,4.0,-999.0,31,-99.99,,,-99.99,,2013-04-03 23:12:00,
2013-04-03 19:22:00,45.0,18.0,30.27,WNW,299,3.0,-999.0,33,-99.99,,,-99.99,,2013-04-03 23:22:00,
2013-04-03 19:32:00,44.0,17.0,30.28,North,351,3.0,-999.0,34,-99.99,,,-99.99,,2013-04-03 23:32:00,
2013-04-03 19:43:00,44.0,17.0,30.28,North,351,3.0,-999.0,34,-99.99,,,-99.99,,2013-04-03 23:43:00,
2013-04-03 19:54:00,44.0,17.0,30.28,NW,318,2.0,-999.0,34,-99.99,,,-99.99,,2013-04-03 23:54:00,
2013-04-03 20:03:00,43.0,17.0,30.28,NW,304,2.0,-999.0,35,-99.99,,,-99.99,,2013-04-04 00:03:00,
2013-04-03 20:12:00,43.0,17.0,30.28,NW,304,2.0,-999.0,35,-99.99,,,-99.99,,2013-04-04 00:12:00,
2013-04-03 20:22:00,43.0,18.0,30.29,NW,325,2.0,-999.0,36,-99.99,,,-99.99,,2013-04-04 00:22:00,
2013-04-03 20:32:00,42.0,18.0,30.29,NNW,346,2.0,-999.0,37,-99.99,,,-99.99,,2013-04-04 00:32:00,
2013-04-03 20:43:00,42.0,18.0,30.29,NNW,346,2.0,-999.0,37,-99.99,,,-99.99,,2013-04-04 00:43:00,
2013-04-03 20:52:00,41.0,18.0,30.30,WNW,302,1.0,-999.0,39,-99.99,,,-99.99,,2013-04-04 00:52:00,
2013-04-03 21:02:00,41.0,21.0,30.32,NW,312,1.0,-999.0,44,-99.99,,,-99.99,,2013-04-04 01:02:00,
2013-04-03 21:12:00,41.0,21.0,30.32,NW,312,1.0,-999.0,44,-99.99,,,-99.99,,2013-04-04 01:12:00,
2013-04-03 21:22:00,40.0,21.0,30.32,North,355,1.0,-999.0,46,-99.99,,,-99.99,,2013-04-04 01:22:00,
2013-04-03 21:32:00,39.0,21.0,30.32,WNW,294,1.0,-999.0,48,-99.99,,,-99.99,,2013-04-04 01:32:00,
2013-04-03 21:43:00,39.0,21.0,30.32,WNW,294,1.0,-999.0,48,-99.99,,,-99.99,,2013-04-04 01:43:00,
2013-04-03 21:52:00,39.0,21.0,30.33,NNW,342,1.0,-999.0,48,-99.99,,,-99.99,,2013-04-04 01:52:00,
2013-04-03 22:02:00,38.0,21.0,30.33,NNW,346,1.0,-999.0,49,-99.99,,,-99.99,,2013-04-04 02:02:00,
2013-04-03 22:12:00,38.0,21.0,30.33,NNW,346,1.0,-999.0,49,-99.99,,,-99.99,,2013-04-04 02:12:00,
2013-04-03 22:22:00,38.0,22.0,30.33,WNW,288,1.0,-999.0,51,-99.99,,,-99.99,,2013-04-04 02:22:00,
2013-04-03 22:32:00,37.0,21.0,30.34,WNW,291,1.0,-999.0,51,-99.99,,,-99.99,,2013-04-04 02:32:00,
2013-04-03 22:42:00,37.0,21.0,30.34,WNW,291,1.0,-999.0,51,-99.99,,,-99.99,,2013-04-04 02:42:00,
2013-04-03 22:53:00,37.0,21.0,30.34,WNW,291,1.0,-999.0,51,-99.99,,,-99.99,,2013-04-04 02:53:00,
2013-04-03 23:02:00,36.0,21.0,30.34,WNW,296,0.0,-999.0,54,-99.99,,,-99.99,,2013-04-04 03:02:00,
2013-04-03 23:12:00,36.0,21.0,30.34,WNW,296,0.0,-999.0,54,-99.99,,,-99.99,,2013-04-04 03:12:00,
2013-04-03 23:22:00,36.0,21.0,30.34,WNW,295,0.0,-999.0,55,-99.99,,,-99.99,,2013-04-04 03:22:00,
2013-04-03 23:33:00,35.0,21.0,30.34,WNW,296,0.0,-999.0,56,-99.99,,,-99.99,,2013-04-04 03:33:00,
2013-04-03 23:45:00,35.0,21.0,30.34,WNW,296,0.0,-999.0,56,-99.99,,,-99.99,,2013-04-04 03:45:00,
2013-04-03 23:53:00,34.0,21.0,30.34,WNW,296,0.0,-999.0,58,-99.99,,,-99.99,,2013-04-04 03:53:00,